Terminal Aerodrome Forecast
Issued by NWS

Home | Current Version | Previous Version | Graphics & Text | Print | Product List | Glossary Off
Versions: 1 2 3 4 5 6 7 8 9 10 11 12 13 14 15 16 17 18 19 20 21 22 23 24 25 26 27 28 29 30 31 32 33 34 35

000
FTUS43 KDDC 270900 AAB
TAFGCK
TAF AMD
KGCK 270932Z 2710/2806 36015KT P6SM BKN016 OVC021
     FM271015 VRB15KT P6SM VCTS BKN025CB
     FM271300 05013KT P6SM BKN100
     FM271900 06016G23KT P6SM BKN100=

USA.gov is the U.S. government's official web portal to all federal, state and local government web resources and services.